Zurück zum Katalog

HULIANWANG DIGUI-155

AktivKommunikationLEO
NORAD 68129·PAYLOAD·🇨🇳 China

Gestartet Mar 12, 2026 von Wenchang Space Launch Site

Loading…

Nächste Überflüge (nächste 24 Stunden)

TLE

AktuellSource: Space-Track

Epoche: Sep 14, 2026, 22:02 UTC

1 68129U 26047A   26257.91810085 -.00000097  00000-0  58381-4 0  9995
2 68129  50.0023  94.5552 0001251  68.6315 291.4690 13.29329536 25007

Verfolge HULIANWANG DIGUI-155 in Echtzeit mit AllMySat

Download on the App Store